Regional Weather Roundup
Issued by NWS

Home | Current Version | Previous Version | Text Only | Print | Product List | Glossary Off
Versions: 1 2 3 4 5 6 7 8 9 10 11 12 13 14 15 16 17 18 19 20 21 22 23 24 25 26 27 28 29 30 31 32 33 34 35 36 37 38 39 40 41 42 43 44 45 46 47 48 49 50

000
ASUS43 KLSX 010007
RWRMO

WEATHER SUMMARY FOR MISSOURI
NATIONAL WEATHER SERVICE SPRINGFIELD MO
700 PM CDT TUE SEP 30 2014

NOTE: "FAIR" INDICATES FEW OR NO CLOUDS BELOW 12,000 FEET WITH NO
       SIGNIFICANT WEATHER AND/OR OBSTRUCTIONS TO VISIBILITY.
       CURRENT SKY AND/OR WEATHER CONDITIONS ARE NOT AVAILABLE FOR
       CHILLICOTHE AND FARMINGTON.

MOZ001>031-035>038-043-044-053-054-010100-
...NORTHERN AND WESTERN MISSOURI...

CITY           SKY/WX    TMP DP  RH WIND       PRES   REMARKS
KANSAS CTY INT MOCLDY    75  58  55 S9        29.79S
6HR MIN TEMP:  74; 6HR MAX TEMP:  84;

KANSAS C DTWN  CLEAR     81  57  43 S8        29.78S
6HR MIN TEMP:  80; 6HR MAX TEMP:  86;

LEE`S SUMMIT   CLEAR     78  57  48 S8        29.81S
6HR MIN TEMP:  78; 6HR MAX TEMP:  84;

ST JOSEPH      PTCLDY    76  58  53 S9        29.76F
6HR MIN TEMP:  76; 6HR MAX TEMP:  87;

CHILLICOTHE      N/A     76  59  55 CALM      29.82S
6HR MIN TEMP:  76; 6HR MAX TEMP:  85;

KIRKSVILLE     CLEAR     69  61  75 E7        29.87S HAZE
6HR MIN TEMP:  69; 6HR MAX TEMP:  75;


$$
MOZ066>068-077>081-088>096-101>105-010100-
...SOUTHWEST MISSOURI...

CITY           SKY/WX    TMP DP  RH WIND       PRES   REMARKS
SPRINGFIELD    PTCLDY    75  57  53 SE8       29.85F
6HR MIN TEMP:  75; 6HR MAX TEMP:  84;

JOPLIN         CLEAR     76  61  59 S8        29.83S
6HR MIN TEMP:  76; 6HR MAX TEMP:  85;


$$
MOZ032>034-039>042-045>050-055>058-069>072-010100-
...CENTRAL MISSOURI...

CITY           SKY/WX    TMP DP  RH WIND       PRES   REMARKS
COLUMBIA       CLEAR     77  56  48 S5        29.85S
6HR MIN TEMP:  76; 6HR MAX TEMP:  85;

JEFFERSON CITY CLEAR     78  59  51 E3        29.83S
6HR MIN TEMP:  78; 6HR MAX TEMP:  88;

ROLLA          MOCLDY    76  53  44 S3        29.86S
6HR MIN TEMP:  74; 6HR MAX TEMP:  85;

SEDALIA        CLEAR     75  58  55 S6        29.84S
6HR MIN TEMP:  75; 6HR MAX TEMP:  86;

WHITEMAN AFB   CLEAR     75  60  59 S7        29.82S
OSAGE BEACH    MOCLDY    73  61  64 S3        29.85S

$$
MOZ051-052-059>065-010100-
...EAST CENTRAL MISSOURI...

CITY           SKY/WX    TMP DP  RH WIND       PRES   REMARKS
ST LOUIS INTL  PTCLDY    78  59  51 E8        29.88S
6HR MIN TEMP:  78; 6HR MAX TEMP:  87;

SPIRIT OF STL  PTCLDY   N/A N/A N/A SE5       29.85F
ST CHARLES     PTCLDY    74  61  63 NE6       29.86F
6HR MIN TEMP:  74; 6HR MAX TEMP:  84;


$$
MOZ072>076-082>087-097>100-106>115-010100-
...SOUTH CENTRAL AND SOUTHEAST MISSOURI...

CITY           SKY/WX    TMP DP  RH WIND       PRES   REMARKS
CAPE GIRARDEAU CLEAR     71  59  65 E5        29.87F
6HR MIN TEMP:  71; 6HR MAX TEMP:  86;

FARMINGTON     CLEAR     73  54  49 S5        29.91S
6HR MIN TEMP:  73; 6HR MAX TEMP:  84;

POPLAR BLUFF   PTCLDY    74  57  55 CALM      29.86S
6HR MIN TEMP:  74; 6HR MAX TEMP:  87;

WEST PLAINS    CLEAR     73  53  49 CALM      29.91S
6HR MIN TEMP:  73; 6HR MAX TEMP:  83;


$$


USA.gov is the U.S. government's official web portal to all federal, state and local government web resources and services.